Wind_Speed
16 16 18 17 17 18 19 19 19 18 18 18 18 19 19 20 20 19 20 20 21 21 20 20 21 21 21 22 22 22 22 22 22 23 23 22 22 22 22 22 22 23 23 22
18 18 18 17 17 18 18 19 19 19 19 19 19 19 20 20 21 21 22 21 21 21 21 21 21 22 22 23 22 22 22 23 23 23 22 22 22 22 23 22 23 23 23 23
18 19 20 19 17 17 18 19 19 19 19 20 20 20 21 22 22 22 22 22 22 22 22 21 22 22 23 23 23 23 23 23 23 23 22 22 22 23 22 23 23 23 24 23
19 20 22 18 18 18 17 18 20 20 20 20 21 21 22 23 23 23 23 23 23 23 23 23 23 23 23 23 22 23 23 23 23 22 22 23 23 22 23 23 24 24 24 24
20 21 21 19 19 18 18 18 18 20 20 21 21 21 22 23 23 24 23 24 24 24 24 24 24 24 24 24 23 23 24 23 23 23 23 24 23 23 23 24 25 24 24 24
20 21 20 19 19 19 20 19 18 19 20 22 22 23 22 22 23 24 24 24 24 25 25 25 25 25 24 24 24 24 24 24 24 24 24 24 24 24 24 25 25 25 25 25
19 21 20 20 19 19 20 19 19 19 19 21 22 22 23 23 23 24 24 25 25 25 25 24 25 25 25 25 25 25 25 24 24 23 24 24 24 24 24 25 25 25 26 26
19 20 20 20 20 20 20 20 20 20 20 20 21 22 23 23 24 24 24 24 24 24 24 24 25 25 25 25 25 25 25 25 24 24 25 24 24 24 25 25 26 26 27 27
20 20 20 20 20 20 20 20 20 20 20 21 21 22 22 23 24 24 24 24 24 24 24 25 25 25 25 26 26 25 25 25 25 25 26 26 26 26 26 26 27 27 27 27
21 21 21 20 20 21 21 21 20 20 21 22 22 22 23 24 25 24 24 24 24 24 25 25 25 25 25 26 26 26 26 26 26 26 26 26 26 26 27 26 26 26 27 27
22 21 21 21 20 21 22 22 22 22 21 22 23 23 23 24 24 24 24 24 24 24 25 25 25 26 27 27 27 28 27 27 26 26 26 26 26 27 27 27 27 27 28 28
21 21 22 22 21 21 22 22 22 23 23 22 23 24 24 24 24 24 24 24 24 24 24 25 26 27 27 27 27 27 27 27 27 27 27 27 27 27 27 27 28 28 28 28
22 21 23 23 23 23 23 23 23 23 23 24 24 23 23 23 23 23 23 23 24 24 24 25 26 26 26 26 26 27 27 27 27 27 27 27 27 27 28 28 29 29 30 29
23 23 23 23 24 24 23 23 24 24 24 24 24 23 23 23 23 23 23 23 24 25 25 26 26 27 27 27 27 27 28 28 27 27 27 27 27 28 28 28 29 29 30 30
24 24 23 23 23 23 23 23 23 24 24 24 24 23 23 22 22 23 23 24 24 25 26 26 27 27 27 27 27 27 27 27 27 27 27 27 27 28 29 29 29 30 30 29
24 24 24 23 23 23 22 23 23 23 23 23 23 23 23 23 23 23 24 24 25 25 26 27 27 28 28 27 27 28 27 27 27 27 28 28 28 29 29 29 29 29 29 29
24 24 24 24 24 24 23 23 22 22 23 23 23 23 24 24 24 24 25 25 25 26 26 26 27 27 27 27 27 27 27 27 27 27 28 28 29 29 30 30 30 29 29 29
24 24 24 24 25 24 24 23 23 23 24 24 24 24 24 24 24 25 25 26 26 26 27 27 27 27 27 27 27 27 26 27 27 27 28 28 29 30 30 29 29 30 30 29
25 24 24 24 24 24 24 24 24 24 24 24 24 25 25 25 26 26 26 26 26 27 27 28 28 28 28 28 28 27 27 27 28 29 29 29 29 30 30 30 30 30 30 30
26 25 25 24 25 24 24 25 25 24 24 24 25 25 25 26 26 26 26 27 27 27 28 28 28 28 28 28 28 28 28 28 28 29 30 30 31 31 31 31 31 31 30 30
27 26 26 26 26 26 26 25 25 25 25 25 26 26 27 27 27 27 27 27 28 28 28 28 28 28 28 28 28 28 29 29 29 29 30 31 31 31 31 31 32 32 31 31
28 27 27 27 27 26 25 25 25 25 26 26 26 27 27 27 27 27 27 28 28 28 28 28 28 28 28 28 28 28 29 29 30 30 30 31 31 31 31 32 32 32 32 32
28 28 27 27 27 26 25 25 25 26 27 27 27 27 27 27 28 28 28 28 29 29 29 29 29 29 29 29 29 29 29 30 30 31 31 31 32 31 32 32 32 31 32 32
28 28 27 27 27 26 25 25 25 26 27 27 27 28 28 28 28 29 29 30 30 30 30 30 29 29 29 29 29 29 30 30 31 31 32 32 32 31 31 31 31 31 31 31
27 27 27 26 26 26 26 26 27 27 28 28 28 28 29 29 29 30 30 31 31 31 31 30 30 30 30 30 30 30 30 30 30 31 32 32 31 31 31 31 31 31 30 31
27 27 27 27 27 27 28 28 28 28 28 29 29 30 30 30 30 31 31 31 31 31 30 30 30 30 30 30 30 30 30 30 31 31 32 32 31 30 30 31 30 30 30 30
28 28 28 28 28 28 28 29 28 29 29 30 30 30 31 31 31 31 31 31 31 30 30 30 30 30 30 31 31 30 30 31 31 31 32 32 31 30 30 30 30 30 30 30
Wind_Direction
263 264 264 268 266 267 268 268 269 269 269 270 266 267 267 268 270 269 273 277 277 276 275 274 276 277 277 276 277 278 279 279 281 282 282 281 281 283 285 286 286 286 288 288
261 264 266 268 271 268 269 269 271 270 270 268 268 267 267 270 272 275 277 278 279 277 277 275 276 277 277 277 278 277 278 279 280 282 281 280 281 283 284 285 286 287 288 290
261 262 265 268 273 273 271 270 273 273 271 270 269 268 269 270 273 277 279 276 275 275 275 274 275 276 277 279 279 278 279 279 279 280 281 281 282 283 284 285 286 286 287 290
265 264 263 269 273 275 276 273 273 274 272 272 272 271 269 270 274 277 276 274 274 274 274 274 274 274 277 279 279 280 281 282 280 280 280 280 281 282 283 284 285 285 287 288
269 269 267 268 273 276 276 276 276 275 273 272 272 272 271 271 274 277 276 274 275 276 275 273 272 275 277 277 278 279 280 281 282 280 279 280 280 281 282 283 285 286 289 289
271 271 272 274 274 275 277 275 277 275 271 271 271 272 273 274 273 275 276 275 276 276 275 273 274 276 276 276 277 278 279 280 282 280 279 280 281 281 281 283 285 287 289 289
272 273 275 277 277 276 276 277 276 276 275 274 274 274 274 275 275 275 276 276 277 276 275 275 275 275 276 275 277 278 278 280 281 279 280 281 281 282 282 283 285 287 289 290
269 271 274 278 277 278 280 280 278 275 276 275 275 275 275 277 278 277 277 277 276 275 274 274 275 275 275 275 275 276 277 278 279 278 280 281 281 282 283 284 285 287 288 290
270 271 275 277 278 279 280 280 279 276 277 279 277 276 277 277 278 278 277 276 275 274 274 275 276 276 274 274 274 276 277 278 278 278 279 280 281 282 284 285 285 286 287 289
270 268 271 276 277 277 277 278 279 276 277 279 279 279 277 278 278 278 277 276 274 273 274 275 276 275 273 273 275 277 277 276 277 278 279 281 281 282 284 284 285 286 288 289
271 269 267 271 276 276 275 276 277 276 276 278 279 279 279 281 280 279 278 276 275 274 274 274 275 275 274 275 276 276 277 277 277 277 278 279 281 283 284 283 283 285 286 288
273 270 268 270 273 277 276 275 276 275 274 275 276 279 281 281 281 280 278 276 275 274 275 276 277 278 278 278 278 277 277 277 277 278 278 279 281 282 283 283 285 285 286 287
272 272 271 271 273 276 277 275 273 274 274 275 277 280 282 282 282 282 280 277 275 276 276 277 278 279 279 280 278 278 278 278 278 279 280 281 281 281 283 285 287 287 288 288
271 271 271 272 272 273 274 274 273 273 274 276 277 278 280 281 282 282 281 279 278 277 277 278 279 279 278 278 278 278 279 279 279 280 280 281 282 282 283 286 288 289 289 288
272 272 273 274 274 273 273 274 274 274 274 274 276 276 277 278 280 281 281 281 281 280 279 280 281 281 279 278 278 278 278 278 278 278 279 280 282 284 285 287 288 289 289 287
272 273 273 275 277 278 277 277 277 277 275 274 274 274 275 277 279 281 281 282 283 284 283 283 282 282 281 279 277 277 278 277 278 279 279 280 282 285 287 288 289 289 288 288
272 273 274 275 277 278 278 277 277 278 278 276 274 274 274 275 278 281 281 282 283 284 285 285 284 283 282 281 279 277 277 276 277 279 280 282 283 285 287 288 288 288 288 288
271 272 273 275 276 277 278 277 277 278 279 278 276 276 276 276 278 280 281 282 283 285 285 286 286 285 283 282 280 278 276 276 277 279 281 282 284 285 286 287 287 288 288 287
271 273 274 275 277 279 278 277 277 279 280 280 279 278 277 278 280 281 282 283 285 286 286 287 286 285 284 283 281 279 278 277 278 280 281 282 284 285 286 287 288 288 287 286
270 272 274 276 278 279 278 277 276 277 278 279 280 279 278 279 280 281 282 283 285 286 286 287 286 285 284 283 283 281 279 280 280 281 282 283 284 285 286 286 287 288 288 287
270 272 273 274 276 278 278 276 274 275 277 278 280 281 281 281 281 282 284 285 285 285 286 286 285 284 283 283 283 282 281 280 281 282 283 284 285 285 285 286 286 286 286 286
271 272 273 275 276 276 276 274 273 275 277 278 280 281 282 283 283 284 284 285 286 287 287 286 285 284 284 284 284 283 282 282 282 283 285 286 286 286 286 287 287 286 286 286
270 271 273 274 274 274 273 273 273 275 277 278 279 280 281 283 284 284 285 286 287 288 288 287 285 284 284 285 285 284 283 284 284 285 286 287 287 288 288 287 287 286 286 285
271 271 272 272 272 272 271 272 273 276 278 278 279 280 281 282 284 284 285 285 287 288 288 286 284 283 283 285 285 284 284 285 286 286 287 288 288 288 289 288 287 287 287 286
271 270 270 270 269 269 269 271 273 277 278 278 279 280 281 283 285 286 286 287 287 287 287 286 284 283 283 284 284 285 285 286 287 288 288 289 289 288 288 288 287 287 287 286
269 268 267 267 268 269 270 272 273 276 277 279 279 280 281 283 285 286 287 287 286 286 286 286 285 284 284 285 285 285 285 286 287 288 289 289 289 288 288 287 287 287 286 285
267 266 266 265 267 269 270 271 273 275 278 279 280 281 282 284 285 285 286 286 285 285 285 286 286 285 285 286 286 286 286 286 287 288 290 290 288 288 288 288 287 286 286 286
Height
5788 5788 5788 5788 5788 5788 5787 5787 5787 5787 5787 5787 5787 5787 5787 5787 5787 5787 5788 5787 5787 5787 5787 5787 5787 5786 5786 5785 5784 5783 5782 5782 5780 5779 5778 5776 5775 5774 5772 5771 5770 5768 5767 5765
5783 5783 5783 5783 5783 5783 5783 5783 5782 5782 5782 5782 5782 5782 5782 5782 5782 5782 5781 5781 5781 5781 5781 5780 5780 5780 5779 5778 5778 5777 5776 5775 5774 5772 5771 5770 5769 5767 5766 5765 5763 5762 5760 5758
5778 5778 5778 5779 5779 5779 5778 5778 5778 5777 5778 5777 5777 5777 5777 5776 5776 5776 5775 5775 5774 5774 5774 5774 5774 5773 5772 5771 5770 5770 5769 5768 5767 5765 5764 5763 5762 5761 5759 5758 5757 5755 5753 5751
5773 5774 5773 5776 5774 5774 5773 5773 5772 5772 5772 5771 5771 5771 5771 5770 5770 5770 5769 5769 5768 5768 5767 5767 5766 5766 5765 5764 5763 5763 5762 5761 5760 5758 5757 5756 5755 5753 5752 5751 5750 5748 5746 5745
5767 5766 5767 5769 5769 5768 5767 5767 5767 5766 5766 5765 5765 5765 5764 5764 5764 5763 5762 5762 5762 5761 5760 5760 5759 5759 5758 5757 5757 5756 5755 5754 5753 5752 5750 5749 5748 5746 5745 5744 5742 5740 5738 5737
5762 5761 5761 5764 5764 5762 5762 5761 5762 5761 5760 5759 5759 5759 5759 5758 5758 5757 5756 5755 5755 5754 5753 5753 5752 5751 5751 5750 5749 5749 5748 5747 5745 5744 5743 5742 5741 5739 5738 5736 5735 5733 5731 5729
5756 5755 5756 5758 5757 5757 5757 5757 5756 5754 5754 5753 5753 5753 5752 5751 5750 5750 5749 5748 5747 5747 5746 5746 5745 5744 5743 5743 5742 5741 5740 5739 5738 5737 5736 5734 5733 5732 5730 5729 5727 5726 5724 5722
5750 5750 5753 5752 5751 5751 5751 5750 5749 5748 5747 5747 5746 5746 5745 5744 5744 5743 5742 5741 5740 5739 5739 5738 5737 5737 5736 5735 5734 5733 5732 5731 5730 5729 5728 5727 5725 5724 5722 5721 5720 5718 5716 5714
5745 5746 5746 5745 5744 5744 5743 5743 5742 5742 5741 5740 5740 5739 5738 5737 5737 5736 5734 5734 5733 5732 5732 5731 5730 5729 5728 5727 5726 5725 5724 5723 5722 5721 5720 5719 5717 5716 5714 5713 5711 5710 5708 5706
5737 5738 5738 5738 5737 5737 5736 5736 5735 5735 5734 5733 5732 5731 5731 5730 5729 5728 5727 5726 5726 5725 5724 5723 5722 5721 5720 5719 5719 5718 5717 5715 5714 5713 5712 5711 5709 5707 5706 5705 5703 5702 5700 5698
5730 5731 5731 5731 5730 5730 5729 5728 5728 5727 5727 5726 5725 5724 5723 5722 5721 5720 5719 5719 5718 5717 5717 5716 5715 5714 5713 5712 5710 5710 5708 5707 5706 5705 5704 5703 5701 5700 5698 5697 5695 5694 5692 5690
5724 5724 5723 5723 5723 5722 5722 5721 5721 5720 5720 5719 5718 5717 5716 5715 5714 5713 5712 5711 5710 5710 5709 5708 5707 5706 5705 5704 5703 5701 5700 5699 5698 5697 5696 5694 5693 5691 5689 5688 5686 5685 5683 5681
5716 5716 5716 5716 5716 5715 5715 5714 5714 5713 5713 5712 5711 5710 5709 5708 5706 5705 5704 5704 5703 5702 5702 5701 5699 5698 5697 5696 5695 5693 5692 5691 5689 5688 5687 5686 5684 5683 5682 5680 5678 5676 5674 5672
5708 5708 5708 5709 5708 5708 5707 5707 5706 5706 5705 5704 5704 5703 5702 5701 5699 5698 5698 5696 5696 5695 5694 5693 5692 5690 5689 5688 5687 5685 5684 5682 5681 5680 5679 5677 5676 5674 5673 5671 5669 5667 5664 5662
5701 5701 5701 5701 5700 5700 5700 5699 5698 5698 5697 5697 5696 5695 5694 5693 5692 5691 5690 5689 5688 5687 5686 5684 5683 5682 5680 5679 5678 5677 5675 5674 5673 5671 5670 5669 5668 5666 5664 5662 5660 5657 5655 5653
5694 5693 5693 5693 5693 5692 5692 5691 5691 5690 5689 5689 5688 5687 5687 5686 5685 5684 5683 5681 5680 5679 5678 5676 5674 5673 5672 5670 5669 5668 5666 5665 5664 5663 5662 5660 5659 5657 5655 5653 5650 5648 5646 5644
5686 5686 5686 5685 5685 5685 5684 5684 5683 5682 5682 5681 5680 5679 5679 5678 5677 5676 5675 5674 5672 5671 5669 5667 5666 5664 5663 5661 5660 5658 5657 5656 5655 5654 5653 5651 5650 5648 5646 5644 5641 5639 5637 5635
5678 5678 5678 5678 5677 5677 5676 5676 5675 5675 5674 5673 5672 5672 5671 5670 5669 5668 5667 5666 5664 5663 5661 5659 5657 5655 5654 5652 5651 5649 5648 5647 5646 5645 5644 5642 5640 5639 5637 5634 5632 5630 5628 5625
5670 5670 5670 5670 5669 5669 5668 5668 5667 5667 5666 5665 5664 5664 5663 5662 5661 5660 5659 5657 5656 5654 5653 5651 5649 5647 5645 5643 5642 5640 5639 5638 5637 5636 5634 5633 5631 5629 5627 5625 5622 5620 5618 5616
5662 5662 5662 5662 5661 5661 5660 5660 5659 5659 5658 5657 5657 5656 5655 5654 5652 5651 5650 5648 5647 5645 5644 5642 5640 5638 5636 5634 5633 5631 5630 5629 5627 5626 5624 5623 5621 5619 5617 5615 5613 5610 5608 5606
5654 5654 5654 5653 5653 5652 5652 5651 5651 5650 5650 5649 5648 5647 5646 5645 5644 5642 5641 5640 5638 5636 5635 5633 5631 5629 5627 5626 5624 5622 5621 5619 5618 5616 5615 5613 5611 5609 5607 5604 5602 5600 5598 5596
5645 5645 5645 5644 5644 5643 5643 5642 5642 5642 5641 5641 5640 5639 5637 5636 5635 5633 5632 5630 5629 5627 5625 5623 5621 5620 5618 5616 5615 5613 5611 5610 5608 5606 5605 5603 5600 5598 5596 5594 5592 5590 5588 5586
5635 5635 5635 5635 5635 5634 5634 5634 5634 5633 5633 5632 5631 5630 5628 5627 5626 5624 5623 5621 5619 5618 5616 5614 5612 5610 5609 5607 5605 5604 5602 5600 5598 5596 5595 5593 5590 5588 5586 5584 5582 5580 5578 5576
5626 5625 5625 5626 5625 5625 5625 5625 5625 5624 5624 5623 5622 5621 5619 5618 5616 5615 5613 5612 5610 5608 5606 5604 5602 5601 5599 5598 5596 5594 5592 5590 5588 5586 5584 5582 5580 5578 5576 5574 5572 5569 5567 5566
5616 5616 5616 5616 5616 5616 5616 5616 5616 5615 5614 5613 5612 5611 5610 5608 5607 5605 5603 5601 5600 5598 5596 5594 5592 5591 5589 5588 5586 5584 5582 5580 5578 5576 5574 5572 5569 5567 5565 5564 5562 5559 5557 5556
5607 5607 5608 5608 5608 5607 5607 5607 5606 5606 5605 5604 5603 5601 5600 5598 5597 5595 5593 5591 5589 5587 5586 5584 5582 5581 5579 5578 5576 5574 5572 5571 5568 5566 5564 5561 5559 5557 5555 5554 5552 5550 5548 5546
5598 5598 5598 5598 5598 5598 5597 5597 5597 5596 5595 5594 5593 5591 5590 5588 5586 5585 5583 5581 5579 5577 5576 5574 5572 5571 5569 5568 5566 5564 5562 5560 5558 5556 5554 5551 5549 5547 5546 5544 5542 5540 5538 5536